MDT,Max TemperatureF,Mean TemperatureF,Min TemperatureF,Max Dew PointF,MeanDew PointF,Min DewpointF,Max Humidity, Mean Humidity, Min Humidity, Max Sea Level PressureIn, Mean Sea Level PressureIn, Min Sea Level PressureIn, Max VisibilityMiles, Mean VisibilityMiles, Min VisibilityMiles, Max Wind SpeedMPH, Mean Wind SpeedMPH, Max Gust SpeedMPH,PrecipitationIn, CloudCover, Events, WindDirDegrees
2012-3-1,34,24,14,11,5,1,58,44,30,29.91,29.82,29.65,10,10,10,18,12,,0.00,1,,299
2012-3-2,32,22,11,10,5,1,76,51,26,30.14,30.07,29.92,10,10,10,28,15,43,0.00,2,,313
2012-3-3,47,36,24,21,15,5,55,43,31,30.14,30.02,29.92,10,10,10,41,31,61,0.00,0,,299
2012-3-4,58,46,34,20,16,12,44,31,17,30.10,30.03,29.94,10,10,10,44,24,59,0.00,0,,305
2012-3-5,58,43,27,18,14,8,68,42,15,30.00,29.84,29.57,10,10,10,28,10,38,0.00,0,,252
2012-3-6,56,38,20,27,18,10,84,51,17,29.78,29.56,29.30,10,6,1,30,18,48,0.01,5,Snow,351
2012-3-7,34,27,19,16,14,11,84,66,47,30.39,29.97,29.78,10,8,1,20,8,35,0.02,4,Snow,33
2012-3-8,45,30,15,18,17,15,53,51,49,30.55,30.53,30.51,10,10,10,12,4,13,0.00,0,,235
2012-3-9,55,37,19,23,20,17,75,51,27,30.52,30.33,30.11,10,10,10,7,4,12,0.00,0,,77
2012-3-10,59,42,24,24,20,15,81,52,22,30.08,29.92,29.76,10,10,10,9,5,12,0.00,0,,337
2012-3-11,63,46,28,19,11,5,52,32,11,29.78,29.66,29.53,10,10,10,17,9,28,0.00,0,,251
2012-3-12,60,47,34,23,18,15,56,37,18,29.81,29.74,29.60,10,10,10,17,7,30,0.00,0,,231
2012-3-13,63,50,37,21,17,12,48,32,15,29.79,29.66,29.55,10,10,10,24,14,37,0.00,0,,216
2012-3-14,63,48,33,25,21,18,48,34,19,29.94,29.77,29.65,10,10,10,23,11,28,0.00,0,,246
2012-3-15,64,48,31,27,24,22,64,42,19,30.06,29.94,29.83,10,10,10,18,7,23,0.00,1,,237
2012-3-16,70,53,35,28,25,21,59,38,16,29.78,29.65,29.50,10,10,10,20,8,38,0.00,0,,269
2012-3-17,66,48,30,28,24,21,72,46,19,29.58,29.48,29.38,10,10,10,28,12,41,0.00,1,,199
2012-3-18,62,49,36,28,22,16,53,36,19,29.48,29.25,29.10,10,10,10,38,18,54,0.00,2,,165
2012-3-19,43,35,26,27,17,9,92,60,28,29.79,29.46,29.18,10,10,10,22,10,31,0.00,5,,161
2012-3-20,48,36,23,20,6,1,50,32,14,29.97,29.90,29.80,10,10,10,18,10,23,0.00,0,,280
2012-3-21,62,45,27,23,19,14,63,40,16,30.03,29.96,29.90,10,10,10,21,11,17,0.00,0,,260
2012-3-22,66,47,28,20,15,7,54,32,10,29.99,29.91,29.79,10,10,10,14,7,,0.00,0,,23
2012-3-23,75,52,28,22,17,12,63,36,9,29.91,29.83,29.70,10,10,10,23,10,43,0.00,0,,271
2012-3-24,69,54,39,31,21,10,70,41,11,30.04,29.93,29.85,10,10,10,14,6,,0.00,0,,161
2012-3-25,73,54,34,30,22,13,70,40,10,29.91,29.80,29.65,10,10,10,21,8,32,0.00,0,,213
2012-3-26,69,54,39,27,18,8,42,26,10,29.74,29.54,29.33,10,9,2,52,17,64,T,2,,210
2012-3-27,58,45,32,18,15,12,44,31,17,30.00,29.91,29.77,10,10,10,23,10,30,0.00,0,,288
2012-3-28,65,47,28,26,18,14,63,38,13,29.95,29.82,29.72,10,10,10,27,8,36,0.00,3,,268
2012-3-29,61,48,35,25,18,9,48,32,15,29.91,29.83,29.76,10,10,10,23,13,33,0.00,1,,299
2012-3-30,72,54,35,30,26,22,56,38,19,29.87,29.77,29.62,10,10,10,24,9,37,0.00,0,,267
2012-3-31,76,58,39,32,24,11,64,36,8,29.78,29.58,29.35,10,10,10,27,12,39,0.00,0,,191